sat.trackr.live / text

‹ back to catalog

STARLINK-5976

NORAD 56343 · 2023-058AC

PAYLOAD ACTIVE UNKNOWN

§ Identity

Operator
Country
US
Launch date
2023-04-27
Launch site
AFWTR
Launch vehicle
Mass (kg)
RCS (m²)

Purposes: comms

External: N2YO · Heavens-Above · Gunter

§ Orbital elements

Epoch: 2026-05-24T23:27:36.045792Z

Period
95.64 min
Inclination
97.4480°
Eccentricity
0.0001604
Mean motion
15.05653686 rev/d
Perigee alt
548.4 km
Apogee alt
550.6 km
Semi-major
6,927.6 km
B*
-2.3315e-4
RAAN
146.0171°
Arg perigee
103.5835°
Mean anomaly
256.5571°
Rev number
16,967

§ Raw data

STARLINK-59761 56343U 23058AC  26144.97750053 -.00003421  00000+0 -23315-3 0  99902 56343  97.4480 146.0171 0001604 103.5835 256.5571 15.05653686169676

JSON: /api/v1/satellites/56343 · /tle

For live sub-satellite position, see the globe view (requires WebGL).

§ Visibility from observer

Set your observer location to see the next 7 days of passes ≥ 10°. The values pass through the URL so the page stays shareable.

No JS? Fill the form by hand. The geolocation button needs JavaScript.